Weather History for Odiham, United Kingdom

Change the Weather History Date:

Sunday, March 10, 2013

  Actual Average (EGUB) Record (EGUB)
Temperature  
Mean Temperature 35 °F -  
Max Temperature 38 °F 48 °F 60 °F (2012)
Min Temperature 32 °F 35 °F 26 °F (1999)
Degree Days  
Heating Degree Days 30    
Moisture  
Dew Point 30 °F    
Average Humidity 81    
Maximum Humidity 87    
Minimum Humidity 69    
Precipitation  
Precipitation 0.00 in - - ()
Sea Level Pressure  
Sea Level Pressure 29.68 in    
Wind  
Wind Speed 12 mph ()    
Max Wind Speed 20 mph    
Max Gust Speed -    
Visibility 7.0 miles    
Events Rain , Snow    
Averages and records for this station are not official NWS values.
T = Trace of Precipitation, MM = Missing Value Source: Averaged Metar Reports

Daily Weather History Graph

Daily Weather History Graph

Search for Another Location

Airport:

Trip Planner

Search our weather history database for the weather conditions in past years. The results will help you decide how hot, cold, wet, or windy it might be!

Date:

Astronomy

Mar. 10, 2013 Rise Set
Actual Time 6:28 AM GMT 6:00 PM GMT
Civil Twilight 5:55 AM GMT 6:33 PM GMT
Nautical Twilight 5:17 AM GMT 7:11 PM GMT
Astronomical Twilight 4:38 AM GMT 7:51 PM GMT
Moon 5:26 AM GMT (3/10) 4:48 PM GMT (3/10)
Length of Visible Light 12h 37m
Length of Day
11h 31m
Waning Crescent, 2% of the Moon is Illuminated
Mar 10
Waning Crescent
Mar 11
New
Mar 19
First Quarter
Mar 27
Full
Apr 3
Last Quarter

Hourly Weather History & Observations

Time (GMT) Temp. Windchill Dew Point Humidity Pressure Visibility Wind Dir Wind Speed Gust Speed Precip Events Conditions
12:50 AM 37.4 °F 31.4 °F 33.8 °F 87% 29.65 in 6.2 mi NNE 8.1 mph - N/A   Overcast
1:50 AM 37.4 °F 30.3 °F 33.8 °F 87% 29.65 in 5.6 mi NNE 10.4 mph - N/A   Haze
2:50 AM 36 °F - 33 °F 82% 29.68 in 7 mi NNE 11.5 mph - -   Overcast
2:50 AM 35.6 °F 27.5 °F 32.0 °F 87% 29.65 in 6.2 mi NNE 11.5 mph - N/A   Overcast
3:50 AM 35.6 °F 28.6 °F 32.0 °F 87% 29.65 in 6.2 mi NNE 9.2 mph - N/A   Overcast
4:50 AM 35.6 °F 28.6 °F 32.0 °F 87% 29.65 in 6.2 mi NNE 9.2 mph - N/A   Overcast
5:50 AM 36 °F - 31 °F 77% 29.67 in 8 mi NE 12.7 mph - -   Overcast
5:50 AM 35.6 °F 27.1 °F 32.0 °F 87% 29.65 in 6.2 mi NE 12.7 mph - N/A   Overcast
6:50 AM 35.6 °F 27.5 °F 32.0 °F 87% 29.65 in 6.2 mi NNE 11.5 mph - N/A   Overcast
7:50 AM 35.6 °F 26.6 °F 32.0 °F 87% 29.65 in 6.2 mi NNE 13.8 mph - N/A   Overcast
8:50 AM 36 °F - 32 °F 80% 29.69 in 12 mi NE 12.7 mph - -   Overcast
8:50 AM 35.6 °F 27.1 °F 32.0 °F 87% 29.65 in 6.2 mi NE 12.7 mph - N/A   Overcast
9:50 AM 37.4 °F 29.3 °F 32.0 °F 81% 29.65 in 6.2 mi NE 12.7 mph - N/A   Overcast
10:50 AM 37.4 °F 28.2 °F 32.0 °F 81% 29.65 in 6.2 mi NE 16.1 mph - N/A   Overcast
11:50 AM 38 °F - 32 °F 71% 29.69 in 14 mi NE 16.1 mph - -   Overcast
11:50 AM 37.4 °F 28.2 °F 32.0 °F 81% 29.65 in 6.2 mi NE 16.1 mph - N/A   Overcast
12:50 PM 37.4 °F 28.5 °F 32.0 °F 81% 29.68 in 6.2 mi NE 15.0 mph - N/A   Overcast
1:50 PM 37.4 °F 28.5 °F 30.2 °F 75% 29.68 in 6.2 mi NE 15.0 mph - N/A   Overcast
2:50 PM 36 °F - 30 °F 70% 29.70 in 1 mi NE 15.0 mph - - Rain Light Rain
2:50 PM 35.6 °F 26.2 °F 30.2 °F 81% 29.68 in 1.2 mi NE 15.0 mph - N/A Rain Light Rain
3:50 PM 35.6 °F 25.9 °F 30.2 °F 81% 29.68 in 6.2 mi NE 16.1 mph - N/A Rain , Snow Light Rain
4:50 PM 33.8 °F 23.5 °F 30.2 °F 87% 29.68 in 6.2 mi NE 16.1 mph - N/A Snow Light Snow
5:50 PM 34 °F - 29 °F 74% 29.72 in 16 mi NE 19.6 mph - - Snow Light Snow
5:50 PM 33.8 °F 22.5 °F 28.4 °F 81% 29.68 in 6.2 mi NE 19.6 mph - N/A   Overcast
6:50 PM 33.8 °F 23.9 °F 28.4 °F 81% 29.68 in 6.2 mi NE 15.0 mph - N/A   Overcast
7:50 PM 33.8 °F 22.8 °F 26.6 °F 75% 29.71 in 6.2 mi NE 18.4 mph - N/A   Overcast
8:50 PM 33 °F - 27 °F 69% 29.75 in 12 mi NE 17.3 mph - -   Overcast
8:50 PM 33.8 °F 23.2 °F 26.6 °F 75% 29.71 in 6.2 mi NE 17.3 mph - N/A   Mostly Cloudy
9:50 PM 32.0 °F 21.2 °F 26.6 °F 80% 29.71 in 6.2 mi NE 16.1 mph - N/A   Mostly Cloudy
10:50 PM 32.0 °F 22.1 °F 26.6 °F 80% 29.71 in 6.2 mi NNE 13.8 mph - N/A   Overcast
11:50 PM 32 °F - 27 °F 73% 29.73 in 12 mi NE 18.4 mph - -   Overcast
11:50 PM 32.0 °F 20.5 °F 26.6 °F 80% 29.68 in 6.2 mi NE 18.4 mph - N/A   Overcast